Wind_Speed
51 49 45 39 33 26 27 25 30 26 28 26 24 23 17 15 14 18 18 19 19 17 17 18 17 15 16 15 15 14 13 15 16 15 15 16 16 17 17 18 19 21 21 21
52 56 46 37 32 26 27 25 31 29 27 25 27 28 24 25 21 15 19 19 17 20 19 18 17 16 14 14 14 14 14 15 16 16 17 17 18 18 18 19 19 20 22 23
58 42 41 34 32 34 29 33 28 29 25 21 20 23 29 29 25 23 22 19 21 19 20 19 19 18 16 16 15 15 15 15 16 18 19 19 18 17 19 19 20 22 22 23
32 16 32 28 33 36 36 22 32 27 27 18 22 7 26 30 28 26 25 24 23 21 20 19 19 19 17 17 17 16 18 19 18 18 18 19 18 18 19 20 21 22 21 22
34 31 33 32 39 33 25 21 25 28 22 18 18 11 20 17 31 30 27 29 28 26 23 21 21 21 21 20 20 20 21 23 22 21 21 22 22 19 20 20 20 20 21 20
22 23 30 32 32 33 20 24 19 19 19 9 19 23 13 24 19 28 29 29 29 27 26 25 24 23 23 23 22 23 23 22 23 19 20 22 23 20 20 21 20 20 19 19
26 26 31 29 34 30 32 30 7 3 5 5 19 19 17 17 21 18 18 23 29 27 28 27 26 24 25 25 25 25 23 22 21 19 20 21 20 20 21 19 17 17 16 16
30 20 38 34 38 33 37 33 12 6 4 4 11 11 11 23 16 22 22 22 24 26 28 29 28 26 25 25 25 24 24 23 22 21 20 19 17 16 14 14 14 13 13 13
29 20 33 30 39 34 37 37 22 9 7 6 11 11 11 24 29 27 16 18 22 25 26 27 26 25 23 21 19 18 17 16 16 15 15 14 14 13 13 12 10 9 10 11
26 17 33 30 34 31 38 39 17 10 5 3 4 7 16 23 23 22 29 28 27 24 23 23 23 22 21 19 17 16 16 16 15 14 14 12 12 11 10 9 9 10 11 12
19 30 24 32 30 38 31 41 22 18 6 5 3 7 14 26 13 19 27 25 25 25 22 21 21 20 19 17 16 16 17 16 14 11 12 13 12 11 11 11 12 13 15 17
22 23 23 36 23 32 37 37 41 22 12 9 4 6 12 13 21 15 18 22 23 23 21 20 20 18 17 17 18 19 18 15 13 14 15 14 12 12 14 14 15 17 20 23
29 14 14 12 24 28 36 37 42 34 26 23 9 5 12 11 10 15 17 18 21 22 22 21 20 20 21 22 23 21 19 17 17 17 16 15 15 16 17 18 20 21 24 27
35 18 26 24 35 36 36 40 35 36 24 23 29 29 21 17 14 13 13 14 19 20 20 20 23 23 24 25 25 23 22 21 20 19 19 19 19 19 20 21 23 26 28 31
34 26 23 23 18 32 42 44 45 44 48 35 43 37 34 31 27 20 14 13 14 16 18 20 25 27 27 28 27 26 25 24 23 22 22 22 22 23 23 25 26 29 31 34
45 28 29 21 21 15 23 33 41 44 44 46 34 33 28 27 19 19 18 19 18 19 18 20 25 29 30 31 29 29 29 28 27 25 26 26 26 26 27 27 29 31 34 36
39 34 22 28 21 17 15 26 28 35 44 45 45 42 37 32 30 28 27 27 25 24 23 20 25 30 33 34 33 32 32 31 30 30 30 29 29 29 30 31 31 33 36 37
35 34 23 10 17 3 32 34 29 31 31 32 32 30 32 30 32 32 32 29 26 23 24 25 28 32 35 35 35 36 36 35 34 33 32 31 31 32 32 33 33 36 38 38
35 31 17 12 16 11 24 31 35 42 44 39 37 32 30 30 30 35 34 32 30 28 27 28 29 31 35 38 39 39 38 38 37 35 34 34 34 33 32 33 38 40 38 41
36 36 34 16 9 9 57 30 25 15 33 38 39 40 38 35 37 42 36 34 36 36 34 33 34 36 39 41 41 41 41 40 39 38 37 36 35 34 33 38 40 40 42 44
31 32 33 27 12 22 38 28 21 28 47 33 29 35 30 33 33 27 29 31 34 38 37 34 36 40 40 42 44 44 43 42 41 40 39 37 35 34 39 41 40 42 43 45
36 27 23 22 25 26 24 19 30 36 20 28 28 25 26 24 21 22 23 22 28 33 34 35 38 40 42 45 46 46 44 44 43 41 39 37 37 40 39 40 42 44 45 43
33 36 38 38 54 22 28 32 30 30 31 33 32 31 31 30 29 28 31 33 31 30 29 32 36 40 42 45 47 47 46 45 43 40 38 38 42 40 39 41 42 41 39 38
35 36 35 36 41 46 45 38 26 23 26 25 23 24 25 29 31 31 29 27 29 32 33 31 33 38 43 44 46 47 47 43 41 39 39 42 36 37 39 41 40 37 35 35
39 40 40 41 40 30 31 32 33 34 37 42 40 33 30 30 31 29 28 30 33 32 30 30 32 35 39 40 42 44 42 42 38 41 35 35 36 38 39 37 35 34 35 37
36 33 35 38 41 43 43 37 28 24 27 32 34 34 34 35 30 32 33 34 33 29 27 27 31 34 34 37 40 42 43 41 36 33 37 37 38 38 35 33 31 33 35 36
Wind_Direction
197 193 187 185 190 196 193 190 197 203 206 207 208 215 208 204 212 222 221 221 216 218 220 223 225 228 228 230 238 239 242 247 250 253 256 259 262 262 267 271 275 282 287 290
193 203 192 185 190 191 194 188 194 198 205 206 216 223 225 227 226 230 231 232 224 218 219 223 229 236 237 239 240 243 242 244 251 256 255 254 257 261 266 270 276 280 284 289
187 200 193 192 187 192 189 208 207 202 196 206 214 228 226 230 230 225 229 231 233 229 228 228 232 234 242 248 250 250 244 237 237 247 255 259 260 265 268 271 274 279 285 290
202 181 198 191 202 197 213 214 215 206 210 207 217 240 237 233 232 230 226 232 237 234 231 231 232 238 242 246 251 253 254 252 249 247 253 261 263 263 267 271 274 278 282 285
196 205 200 199 202 200 214 208 205 207 206 207 211 221 233 225 221 224 223 226 231 237 236 234 236 241 247 247 248 250 254 258 260 261 259 257 258 262 268 271 273 276 277 281
205 204 196 199 195 204 205 196 184 196 205 218 218 210 230 222 217 215 219 223 230 234 240 241 240 242 245 247 248 251 253 253 259 262 269 266 261 263 267 267 268 270 273 278
205 192 200 201 197 200 202 186 128 137 198 215 203 208 217 206 213 215 225 235 234 233 235 238 241 243 243 244 246 246 247 248 253 256 255 255 256 258 266 272 273 272 273 276
183 189 193 192 196 191 197 185 175 165 179 203 189 218 199 214 200 211 221 228 229 233 238 240 243 242 241 240 239 239 240 243 245 248 249 249 252 258 260 262 265 271 277 281
190 194 197 192 198 197 190 195 209 162 152 162 200 209 195 211 223 225 219 223 229 231 233 236 239 240 240 238 235 233 233 230 230 233 234 238 244 247 249 251 257 266 277 287
195 187 194 195 196 198 199 190 176 188 134 210 242 209 212 223 229 229 229 238 237 236 232 232 233 234 235 233 228 227 227 224 224 229 233 237 239 237 239 253 269 278 284 291
203 200 193 193 199 197 191 200 202 204 203 156 154 233 216 229 230 234 235 231 233 235 234 233 231 227 223 221 220 219 218 223 228 231 232 227 231 243 257 267 271 277 284 290
186 201 187 199 197 201 205 207 207 205 195 212 207 224 197 199 214 218 223 232 234 226 225 223 218 217 220 222 220 219 224 227 231 234 233 236 247 257 264 269 274 279 285 292
193 191 143 182 208 200 204 209 210 213 214 211 187 186 173 171 191 216 224 222 227 227 221 215 215 219 223 222 223 225 229 233 236 235 240 247 252 258 262 267 273 281 292 301
204 204 198 196 212 207 207 207 211 212 211 217 225 227 211 206 233 251 250 228 226 229 229 230 228 230 231 229 228 232 232 235 238 241 243 245 251 259 267 275 282 289 297 304
208 215 205 216 222 220 221 215 212 213 221 218 235 232 236 239 248 255 245 238 233 226 226 232 235 239 237 232 232 234 234 239 242 243 246 250 257 265 272 278 288 294 300 306
207 213 216 211 210 205 221 228 225 226 224 229 235 242 243 238 227 232 232 228 229 233 230 253 250 243 239 236 236 238 240 242 244 249 252 255 263 270 276 281 288 298 304 305
210 212 217 219 217 216 224 217 219 227 234 237 232 244 244 247 245 246 251 249 250 248 247 259 255 251 244 239 239 240 242 244 247 251 255 261 267 274 281 287 294 299 302 301
211 213 212 199 198 172 243 238 234 239 242 240 241 244 250 254 259 261 261 261 253 247 250 249 249 249 245 240 243 243 244 244 248 253 257 263 270 276 282 288 293 299 298 300
218 210 196 189 203 243 232 232 228 228 238 241 249 247 250 260 259 255 253 257 257 255 256 255 252 254 249 246 244 243 245 248 250 254 259 266 270 276 282 288 298 297 298 300
210 213 218 215 215 219 245 228 223 222 256 237 241 248 257 261 255 259 260 267 262 258 255 258 249 245 246 244 244 245 248 250 252 256 261 264 269 275 282 292 293 294 296 300
200 208 209 214 212 250 255 247 239 232 250 258 257 259 259 256 262 273 266 259 258 258 259 256 250 246 247 247 245 245 248 250 253 255 259 264 269 277 289 292 291 294 297 299
204 188 198 202 216 252 249 234 224 241 241 243 254 267 278 277 270 264 259 252 252 253 253 249 244 246 246 244 245 246 247 249 251 253 258 263 272 285 287 285 288 293 296 300
214 220 214 218 226 236 250 243 249 250 260 263 263 268 271 272 270 266 265 264 260 255 255 250 247 247 246 244 243 243 244 245 247 251 257 267 280 282 279 285 290 294 299 303
220 222 219 224 235 239 247 249 247 249 247 248 255 269 270 267 260 258 256 256 257 256 254 249 243 244 246 244 242 241 240 240 245 251 265 279 273 277 285 289 293 297 301 306
219 220 222 228 237 241 245 249 252 249 254 263 268 270 264 259 254 255 257 263 259 256 250 244 242 243 244 243 239 238 236 241 246 264 271 267 275 281 285 290 292 295 301 307
210 215 221 228 235 242 249 253 252 250 248 253 255 255 254 259 262 256 255 256 255 249 241 237 240 241 239 236 233 233 238 244 261 262 264 273 280 285 286 286 286 294 301 307
Height
3093 3101 3102 3108 3115 3123 3129 3135 3139 3145 3148 3152 3154 3158 3159 3162 3164 3166 3168 3171 3173 3175 3177 3178 3181 3183 3185 3187 3189 3191 3193 3195 3196 3198 3199 3200 3202 3202 3203 3203 3202 3202 3202 3202
3091 3089 3103 3108 3116 3123 3128 3133 3136 3140 3144 3148 3150 3153 3156 3157 3160 3163 3164 3167 3169 3171 3174 3176 3178 3179 3181 3183 3185 3187 3190 3191 3192 3194 3195 3196 3197 3198 3199 3199 3199 3198 3198 3197
3081 3091 3100 3106 3112 3119 3122 3127 3131 3136 3140 3143 3146 3147 3150 3152 3155 3157 3159 3161 3164 3167 3170 3173 3175 3176 3178 3180 3181 3183 3185 3187 3189 3190 3190 3192 3193 3195 3195 3195 3194 3194 3194 3193
3087 3091 3099 3102 3107 3115 3118 3124 3130 3134 3138 3140 3143 3142 3142 3146 3148 3151 3155 3157 3159 3162 3166 3169 3171 3173 3175 3177 3178 3179 3180 3182 3184 3186 3186 3187 3188 3189 3190 3190 3190 3190 3190 3189
3083 3090 3094 3097 3102 3110 3117 3123 3127 3132 3134 3136 3137 3140 3135 3137 3139 3145 3148 3152 3154 3157 3161 3165 3167 3169 3171 3172 3173 3174 3175 3176 3177 3180 3181 3182 3183 3185 3185 3185 3185 3185 3185 3184
3083 3087 3092 3094 3102 3108 3115 3120 3124 3127 3131 3131 3129 3132 3127 3130 3135 3138 3142 3147 3149 3152 3155 3158 3161 3163 3165 3167 3168 3169 3170 3171 3171 3175 3176 3176 3177 3179 3179 3180 3179 3179 3180 3180
3080 3082 3086 3092 3098 3105 3110 3114 3121 3128 3130 3123 3121 3126 3124 3126 3131 3134 3137 3141 3144 3147 3150 3152 3155 3158 3159 3161 3162 3163 3165 3166 3167 3170 3171 3171 3172 3172 3173 3175 3175 3175 3174 3174
3073 3079 3080 3086 3092 3090 3100 3105 3106 3113 3121 3119 3120 3117 3118 3124 3126 3129 3131 3135 3138 3141 3145 3146 3149 3151 3153 3154 3157 3158 3160 3161 3162 3164 3165 3167 3168 3169 3168 3169 3170 3171 3171 3170
3067 3073 3078 3083 3086 3090 3094 3100 3106 3106 3111 3114 3112 3113 3115 3117 3121 3125 3127 3130 3133 3137 3139 3142 3144 3146 3147 3148 3151 3153 3155 3157 3157 3159 3160 3161 3164 3165 3165 3165 3165 3166 3167 3166
3064 3072 3074 3078 3081 3087 3090 3099 3101 3100 3111 3115 3107 3108 3108 3112 3116 3118 3122 3125 3127 3130 3132 3135 3138 3140 3142 3144 3146 3148 3151 3152 3153 3154 3156 3157 3158 3161 3161 3162 3162 3163 3163 3162
3061 3066 3071 3072 3075 3079 3085 3087 3092 3096 3098 3101 3110 3101 3101 3105 3109 3112 3116 3119 3122 3125 3127 3128 3132 3135 3138 3141 3143 3145 3147 3149 3151 3151 3153 3154 3154 3156 3158 3158 3158 3158 3159 3158
3055 3059 3062 3067 3071 3075 3078 3083 3088 3090 3096 3097 3097 3098 3098 3101 3105 3108 3111 3114 3119 3121 3122 3124 3127 3131 3135 3137 3139 3141 3144 3145 3146 3148 3149 3150 3152 3153 3153 3153 3153 3153 3154 3153
3051 3053 3059 3066 3071 3069 3072 3078 3083 3086 3090 3090 3095 3095 3096 3099 3102 3106 3107 3109 3113 3116 3118 3120 3125 3128 3130 3132 3134 3137 3139 3142 3142 3143 3145 3146 3147 3148 3149 3149 3148 3148 3148 3146
3048 3048 3050 3052 3053 3061 3067 3073 3078 3081 3085 3085 3086 3092 3095 3097 3101 3104 3106 3106 3108 3112 3114 3117 3120 3123 3126 3128 3130 3132 3134 3136 3138 3139 3141 3141 3142 3143 3143 3144 3143 3141 3139 3138
3046 3047 3048 3050 3052 3056 3058 3063 3068 3071 3074 3079 3078 3082 3088 3093 3097 3101 3103 3104 3106 3107 3109 3112 3115 3117 3120 3122 3124 3126 3128 3130 3132 3134 3135 3135 3137 3137 3136 3136 3136 3134 3132 3129
3036 3037 3043 3046 3049 3052 3055 3059 3064 3066 3071 3073 3074 3076 3083 3090 3092 3094 3098 3100 3102 3104 3105 3108 3110 3112 3115 3117 3118 3120 3122 3124 3127 3128 3129 3130 3130 3130 3130 3129 3128 3126 3123 3120
3029 3035 3038 3042 3045 3050 3053 3051 3055 3059 3062 3064 3066 3071 3076 3082 3084 3087 3091 3095 3098 3099 3100 3102 3103 3104 3107 3110 3112 3114 3116 3118 3120 3121 3122 3122 3123 3123 3122 3121 3120 3118 3115 3112
3027 3032 3038 3037 3043 3050 3041 3048 3051 3053 3056 3059 3062 3065 3067 3074 3078 3080 3083 3087 3089 3091 3092 3094 3095 3098 3100 3103 3105 3106 3109 3111 3112 3113 3114 3114 3115 3115 3114 3113 3112 3109 3107 3104
3022 3029 3032 3034 3040 3037 3032 3036 3039 3042 3046 3053 3053 3057 3061 3066 3069 3069 3074 3077 3080 3083 3085 3087 3090 3092 3093 3094 3095 3097 3100 3103 3103 3105 3105 3106 3107 3106 3105 3105 3104 3101 3098 3095
3014 3021 3026 3031 3037 3033 3012 3032 3038 3041 3035 3041 3045 3047 3051 3058 3059 3059 3066 3067 3070 3073 3076 3079 3081 3081 3082 3085 3087 3090 3092 3094 3095 3096 3096 3097 3097 3097 3096 3095 3093 3091 3089 3086
3008 3014 3018 3022 3024 3017 3014 3025 3032 3038 3022 3034 3036 3041 3043 3047 3050 3054 3056 3057 3059 3062 3065 3069 3071 3072 3074 3076 3078 3080 3083 3085 3087 3087 3088 3088 3088 3088 3088 3085 3083 3082 3079 3076
2997 3006 3011 3017 3022 3014 3005 3014 3018 3021 3024 3029 3031 3033 3036 3040 3042 3044 3045 3046 3048 3051 3053 3057 3060 3062 3064 3066 3068 3071 3074 3076 3077 3078 3078 3079 3080 3080 3078 3076 3073 3071 3067 3064
2994 2995 3000 3005 2996 2999 3001 3008 3011 3019 3021 3022 3024 3027 3029 3030 3033 3035 3036 3036 3039 3041 3043 3047 3051 3053 3054 3057 3060 3062 3064 3067 3067 3068 3069 3070 3070 3069 3068 3066 3063 3060 3057 3053
2986 2989 2993 2997 2996 2997 2999 3004 3009 3012 3013 3015 3017 3020 3022 3023 3023 3025 3026 3027 3028 3030 3034 3037 3040 3041 3044 3047 3050 3052 3055 3057 3058 3060 3060 3059 3060 3060 3058 3056 3052 3049 3047 3044
2978 2983 2985 2988 2990 2992 2994 2995 2998 3003 3007 3009 3010 3012 3013 3014 3015 3017 3018 3019 3019 3020 3024 3028 3030 3033 3036 3039 3041 3045 3047 3048 3049 3049 3050 3051 3050 3048 3047 3044 3043 3040 3037 3032
2970 2974 2979 2982 2984 2986 2986 2987 2991 2994 2997 2999 3002 3003 3004 3005 3006 3009 3010 3009 3010 3013 3015 3018 3022 3023 3026 3031 3033 3037 3036 3038 3039 3042 3042 3041 3042 3039 3036 3034 3034 3030 3027 3023